FW1764 Weather Reports


time (UTC)temp
F
wind
direction
speed
knots
gust
knots
rain 1hr
in
rain 24hr
in
rain mn
in
humidity
%
barometer
mb
20260906140009 78 76 0.0 1.7 0.00 0.00 0.00 81 1015.7
20260906134501 78 25 0.0 3.5 0.00 0.00 0.00 82 1015.7
20260906133127 77 6 0.0 0.9 0.00 0.00 0.00 83 1015.8
20260906131614 77 223 0.0 0.9 0.00 0.00 0.00 84 1015.8
20260906130105 76 346 0.0 0.0 0.00 0.00 0.00 85 1015.7
20260906124525 75 36 0.0 1.7 0.00 0.00 0.00 86 1015.7
20260906123022 75 41 0.0 0.0 0.00 0.00 0.00 86 1015.4
20260906121522 75 49 0.0 0.0 0.00 0.00 0.00 86 1015.2
20260906120019 75 54 0.0 0.0 0.00 0.00 0.00 86 1015.2
20260906114517 75 54 0.0 0.0 0.00 0.00 0.00 86 1014.9
20260906113017 75 54 0.0 0.0 0.00 0.00 0.00 86 1015.0
20260906111513 75 53 0.0 0.0 0.00 0.00 0.00 86 1014.8
20260906110011 76 53 0.0 0.9 0.00 0.00 0.00 86 1014.6
20260906104511 76 205 0.0 0.0 0.00 0.00 0.00 86 1014.5
20260906103010 76 205 0.0 0.0 0.00 0.00 0.00 87 1014.3
20260906101539 76 205 0.0 0.0 0.00 0.00 0.00 87 1014.3
20260906100040 75 205 0.0 0.0 0.00 0.00 0.00 87 1014.3
20260906094535 75 206 0.0 0.0 0.00 0.00 0.00 86 1014.1
20260906093043 74 206 0.0 0.0 0.00 0.00 0.00 86 1013.9
20260906091531 74 206 0.0 0.0 0.00 0.00 0.00 86 1014.0
20260906090030 74 206 0.0 0.0 0.00 0.00 0.00 85 1013.8
20260906084526 74 206 0.0 0.0 0.00 0.00 0.00 85 1013.7
20260906083025 74 206 0.0 0.0 0.00 0.00 0.00 85 1013.7
20260906081527 74 206 0.0 0.0 0.00 0.00 0.00 85 1013.6
20260906080023 74 206 0.0 0.0 0.00 0.00 0.00 84 1013.4
20260906074518 74 206 0.0 0.0 0.00 0.00 0.00 84 1013.5
20260906073016 75 206 0.0 0.0 0.00 0.00 0.00 84 1013.6
20260906071515 75 206 0.0 0.0 0.00 0.00 0.00 84 1013.7
20260906070014 75 206 0.0 0.0 0.00 0.00 0.00 83 1013.7
20260906064517 75 206 0.0 0.0 0.00 0.00 0.00 83 1013.9
20260906063010 75 206 0.0 0.0 0.00 0.00 0.00 83 1013.9
20260906061509 75 206 0.0 0.0 0.00 0.00 0.00 83 1014.0
20260906060013 76 206 0.0 0.0 0.00 0.00 0.00 82 1014.0
20260906054505 76 206 0.0 0.0 0.00 0.00 0.00 82 1014.0
20260906053013 76 206 0.0 0.0 0.00 0.00 0.00 82 1014.0
20260906051502 76 206 0.0 0.0 0.00 0.00 0.00 81 1014.0
20260906050100 76 206 0.0 0.0 0.00 0.00 0.00 81 1013.9
20260906044557 77 206 0.0 0.0 0.00 0.00 0.00 81 1013.6
20260906043058 77 206 0.0 0.0 0.00 0.00 0.00 80 1013.7
20260906041557 77 206 0.0 0.0 0.00 0.00 0.00 80 1013.6
20260906040056 77 206 0.0 0.0 0.00 0.00 0.00 79 1013.5
20260906034530 78 206 0.0 0.0 0.00 0.00 0.00 79 1013.4
20260906033030 78 206 0.0 0.0 0.00 0.00 0.00 79 1013.4
20260906031558 78 206 0.0 0.0 0.00 0.00 0.00 78 1013.2
20260906030056 79 206 0.0 0.0 0.00 0.00 0.00 77 1013.1
20260906024552 79 206 0.0 0.0 0.00 0.00 0.00 77 1013.0
20260906023053 80 206 0.0 0.0 0.00 0.00 0.00 76 1013.0
20260906021557 80 206 0.0 0.0 0.00 0.00 0.00 76 1012.8
20260906020054 81 202 0.0 0.0 0.00 0.00 0.00 75 1012.6
20260906014550 81 203 0.0 0.0 0.00 0.00 0.00 74 1012.2
20260906013049 82 203 0.0 0.0 0.00 0.00 0.00 73 1012.0
20260906011602 83 202 0.0 0.0 0.00 0.00 0.00 72 1011.8
20260906010048 84 202 0.0 0.0 0.00 0.00 0.00 70 1011.6
20260906004546 85 202 0.0 0.0 0.00 0.00 0.00 68 1011.4
20260906003035 86 202 0.0 0.0 0.00 0.00 0.00 66 1011.4
20260906001517 87 202 0.0 0.0 0.00 0.00 0.00 64 1011.5
20260906000046 89 202 0.0 0.0 0.00 0.00 0.00 62 1011.5
20260905234546 90 202 0.0 0.9 0.00 0.00 0.00 59 1011.9
20260905233103 91 224 0.0 0.0 0.00 0.00 0.00 57 1011.8
20260905231552 92 211 0.0 0.9 0.00 0.00 0.00 55 1011.7
20260905230046 93 230 0.0 1.7 0.00 0.00 0.00 53 1011.4
20260905224604 97 192 0.0 5.2 0.00 0.00 0.00 48 1011.8
20260905223039 100 85 0.0 1.7 0.00 0.00 0.00 45 1011.4
20260905221541 100 236 0.0 2.6 0.00 0.00 0.00 44 1011.3
20260905220045 100 13 0.0 0.9 0.00 0.00 0.00 44 1011.2
20260905214540 100 205 0.0 0.9 0.00 0.00 0.00 44 1011.1
20260905213036 99 114 0.0 0.9 0.00 0.00 0.00 46 1011.1
20260905211534 99 230 0.0 0.9 0.00 0.00 0.00 44 1011.3
20260905210034 100 359 0.0 2.6 0.00 0.00 0.00 41 1011.2
20260905204532 100 149 0.0 0.0 0.00 0.00 0.00 41 1011.5
20260905203012 100 169 0.0 0.9 0.00 0.00 0.00 43 1011.5
20260905201519 101 39 0.0 4.3 0.00 0.00 0.00 40 1011.7
20260905200110 101 112 0.0 1.7 0.00 0.00 0.00 41 1011.8
20260905194520 101 23 0.0 1.7 0.00 0.00 0.00 41 1012.2
20260905193119 101 25 0.0 4.3 0.00 0.00 0.00 42 1012.3
20260905191550 100 58 0.0 0.9 0.00 0.00 0.00 43 1012.5
20260905190104 99 274 0.0 1.7 0.00 0.00 0.00 45 1012.7
20260905184605 101 304 0.0 3.5 0.00 0.00 0.00 43 1012.8
20260905183045 101 119 0.0 3.5 0.00 0.00 0.00 43 1012.9
20260905181545 100 354 0.9 3.5 0.00 0.00 0.00 44 1013.2
20260905180042 99 359 0.0 0.9 0.00 0.00 0.00 44 1013.3
20260905174550 101 155 0.0 1.7 0.00 0.00 0.00 43 1013.3
20260905173040 101 78 0.0 0.9 0.00 0.00 0.00 43 1013.5
20260905171537 103 258 0.0 1.7 0.00 0.00 0.00 42 1013.6
20260905170037 102 270 0.0 5.2 0.00 0.00 0.00 45 1013.8
20260905164535 104 62 0.0 1.7 0.00 0.00 0.00 43 1014.2
20260905163028 103 137 0.0 3.5 0.00 0.00 0.00 46 1014.3
20260905161524 101 179 0.0 4.3 0.00 0.00 0.00 46 1014.4
20260905160022 100 15 0.0 1.7 0.00 0.00 0.00 48 1014.6
20260905154515 99 193 0.9 4.3 0.00 0.00 0.00 50 1014.7
20260905153010 97 158 0.0 2.6 0.00 0.00 0.00 52 1014.6
20260905151509 97 134 0.0 3.5 0.00 0.00 0.00 53 1014.6
20260905150004 95 191 0.9 3.5 0.00 0.00 0.00 57 1014.6
20260905144601 92 174 0.0 1.7 0.00 0.00 0.00 64 1014.7
20260905143055 90 173 0.0 2.6 0.00 0.00 0.00 65 1014.6
20260905141558 86 183 0.0 5.2 0.00 0.00 0.00 71 1014.6